(°C)
(°C)
WSW
WSW
WSW
WSW
SW
SW
SSW
(كم/سا)
30-42
29-40
28-36
25-33
22-31
20-29
18-28
(مم)
0
1
0
0
0
1.7
1.4
(%)
83
98
75
75
68
72
72

Sun elevation

/ 52.1°
sun-icon
UV 1
05:26
20:31
هلال المساء (346°)
05:10
19:04

METAR for 48.78°شمال 44.34°شرق (URWW)

الوقت Conditions درجة الحرارة/
نقطة الندى
رياح مجال رؤية حالة الطقس غيوم الضغط Change Raw
LIFR 7°C / 6°C 270º 17kt 3900m Light Showers Rain Broken Clouds 400ft 1010 Temporary: Visibility 1000. Thunderstorm Rain Hail . Broken Clouds 100ft. Broken Clouds 2000ft. Cumulonimbus RMK OBST OBSC . Runway 24: Wet or puddles, 51-100% contamination with <1mm, friction coefficient 0.55. URWW 100630Z 27009MPS 3900 -SHRA BKN004 OVC026CB 07/06 Q1010 R24/290055 TEMPO 1000 TSRAGR BKN001 BKN020CB RMK OBST OBSC
IFR 7°C / 6°C 270º 17kt 9000m Light Rain Broken Clouds 700ft 1010 No Significant change. Runway 24: Wet or puddles, 51-100% contamination with <1mm, friction coefficient 0.55. URWW 100600Z 27009MPS 9000 -RA BKN007 OVC033 07/06 Q1010 R24/290055 NOSIG RMK OBST OBSC
IFR 7°C / 6°C 290º 17kt >10km - Broken Clouds 900ft 1010 No Significant change. Runway 24: Wet or puddles, 51-100% contamination with <1mm, friction coefficient 0.55. URWW 100530Z 29009MPS 9999 BKN009 07/06 Q1010 R24/290055 NOSIG RMK OBST OBSC
IFR 7°C / 6°C 300º 19kt >10km - Broken Clouds 800ft 1010 No Significant change. Runway 24: Wet or puddles, 26-50% contamination with 2mm, friction coefficient 0.55. URWW 100500Z 30010MPS 9999 BKN008 BKN040 07/06 Q1010 R24/250255 NOSIG RMK OBST OBSC
IFR 7°C / 6°C 300º 19kt >10km - Broken Clouds 800ft 1010 No Significant change. Runway 24: Wet or puddles, 26-50% contamination with 2mm, friction coefficient 0.55. URWW 100430Z 30010MPS 9999 BKN008 BKN040 07/06 Q1010 R24/250255 NOSIG RMK OBST OBSC
IFR 7°C / 6°C 310º 23kt >10km - Broken Clouds 700ft 1009 Temporary: Visibility 1000. Thunderstorm Rain Hail . RMK OBST OBSC . Runway 24: Wet or puddles, 26-50% contamination with 2mm, friction coefficient 0.55. URWW 100400Z 31012MPS 9999 BKN007 BKN036CB 07/06 Q1009 R24/250255 TEMPO 1000 TSRAGR RMK OBST OBSC
IFR 7°C / 6°C 300º 21kt >10km Light Showers Rain Broken Clouds 600ft 1010 Temporary: Visibility 1000. Thunderstorm Rain Hail . RMK OBST OBSC . Runway 24: Wet or puddles, 26-50% contamination with 2mm, friction coefficient 0.55. URWW 100330Z 30011MPS 9999 -SHRA BKN006 OVC026CB 07/06 Q1010 R24/250255 TEMPO 1000 TSRAGR RMK OBST OBSC
IFR 7°C / 6°C 290º 19kt 7000m Light Showers Rain Broken Clouds 500ft 1011 Temporary: Visibility 1000. Thunderstorm Rain Hail . RMK OBST OBSC . Runway 24: Wet or puddles, 26-50% contamination with 2mm, friction coefficient 0.55. URWW 100300Z 29010MPS 7000 -SHRA BKN005 OVC023CB 07/06 Q1011 R24/250255 TEMPO 1000 TSRAGR RMK OBST OBSC
LIFR 7°C / 6°C 290º 17kt 5000m Light Showers Rain Broken Clouds 400ft 1011 Temporary: Visibility 1000. Thunderstorm Rain Hail . RMK OBST OBSC . Runway 24: Wet or puddles, 26-50% contamination with 2mm, friction coefficient 0.55. URWW 100230Z 29009MPS 5000 -SHRA BKN004 OVC023CB 07/06 Q1011 R24/250255 TEMPO 1000 TSRAGR RMK OBST OBSC
IFR 7°C / 6°C 290º 17kt 4100m Light Showers Rain Broken Clouds 500ft 1011 Temporary: Visibility 1000. Thunderstorm Rain Hail . RMK OBST OBSC . Runway 24: Wet or puddles, 26-50% contamination with 2mm, friction coefficient 0.55. URWW 100200Z 29009MPS 4100 -SHRA BKN005 OVC023CB 07/06 Q1011 R24/250255 TEMPO 1000 TSRAGR RMK OBST OBSC
IFR 7°C / 6°C 300º 17kt >10km Light Showers Rain Broken Clouds 700ft 1011 Temporary: Visibility 1000. Thunderstorm Rain Hail . RMK OBST OBSC . Runway 24: Wet or puddles, 26-50% contamination with 2mm, friction coefficient 0.55. URWW 100130Z 30009MPS 9999 -SHRA BKN007 BKN025CB 07/06 Q1011 R24/250255 TEMPO 1000 TSRAGR RMK OBST OBSC
IFR 7°C / 6°C 310º 19kt >10km Light Showers Rain Broken Clouds 700ft 1011 Temporary: Visibility 1000. Thunderstorm Rain Hail . RMK OBST OBSC . Runway 24: Wet or puddles, 26-50% contamination with 2mm, friction coefficient 0.55. URWW 100100Z 31010MPS 9999 -SHRA BKN007 BKN030CB 07/06 Q1011 R24/250255 TEMPO 1000 TSRAGR RMK OBST OBSC
IFR 7°C / 7°C 310º 19kt >10km Light Showers Rain Broken Clouds 700ft 1011 Temporary: Visibility 1000. Thunderstorm Rain Hail . RMK OBST OBSC . Runway 24: Wet or puddles, 26-50% contamination with 2mm, friction coefficient 0.55. URWW 100030Z 31010MPS 9999 -SHRA BKN007 BKN030CB 07/07 Q1011 R24/250255 TEMPO 1000 TSRAGR RMK OBST OBSC
IFR 7°C / 7°C 310º 19kt >10km Light Showers Rain Broken Clouds 600ft 1011 Temporary: Visibility 1000. Thunderstorm Rain Hail . RMK OBST OBSC . Runway 24: Wet or puddles, 26-50% contamination with 2mm, friction coefficient 0.55. URWW 100000Z 31010MPS 9999 -SHRA BKN006 OVC023CB 07/07 Q1011 R24/250255 TEMPO 1000 TSRAGR RMK OBST OBSC
IFR 8°C / 7°C 310º 17kt >10km Light Showers Rain Broken Clouds 600ft 1011 Temporary: Visibility 1000. Thunderstorm Rain Hail . RMK OBST OBSC . Runway 24: Wet or puddles, 26-50% contamination with 2mm, friction coefficient 0.55. URWW 092330Z 31009MPS 9999 -SHRA BKN006 OVC026CB 08/07 Q1011 R24/250255 TEMPO 1000 TSRAGR RMK OBST OBSC
IFR 8°C / 7°C 300º 17kt 9000m Light Showers Rain Broken Clouds 600ft 1012 Temporary: Visibility 1000. Thunderstorm Rain Hail . RMK OBST OBSC . Runway 24: Wet or puddles, 26-50% contamination with 2mm, friction coefficient 0.55. URWW 092300Z 30009MPS 9000 -SHRA BKN006 OVC021CB 08/07 Q1012 R24/250255 TEMPO 1000 TSRAGR RMK OBST OBSC
IFR 8°C / 7°C 310º 17kt 8000m Light Showers Rain Broken Clouds 700ft 1012 No Significant change. Runway 24: Wet or puddles, 26-50% contamination with 2mm, friction coefficient 0.55. URWW 092230Z 31009MPS 8000 -SHRA BKN007 OVC027CB 08/07 Q1012 R24/250255 NOSIG RMK OBST OBSC
IFR 8°C / 7°C 300º 17kt 7000m Light Showers Rain Broken Clouds 600ft 1012 No Significant change. Runway 24: Wet or puddles, 26-50% contamination with 2mm, friction coefficient 0.55. URWW 092200Z 30009MPS 7000 -SHRA BKN006 OVC026CB 08/07 Q1012 R24/250255 NOSIG RMK OBST OBSC
IFR 8°C / 7°C 310º 16kt 6000m Light Showers Rain Broken Clouds 600ft 1012 No Significant change. Runway 24: Wet or puddles, 26-50% contamination with 2mm, friction coefficient 0.55. URWW 092130Z 31008MPS 6000 -SHRA BKN006 OVC020CB 08/07 Q1012 R24/250255 NOSIG RMK OBST OBSC
IFR 8°C / 8°C 310º 16kt 8000m Light Showers Rain Broken Clouds 700ft 1012 No Significant change. Runway 24: Wet or puddles, 26-50% contamination with 2mm, friction coefficient 0.55. URWW 092100Z 31008MPS 8000 -SHRA BKN007 OVC022CB 08/08 Q1012 R24/250255 NOSIG RMK OBST OBSC
IFR 9°C / 8°C 320º 17kt >10km Light Showers Rain Broken Clouds 600ft 1012 No Significant change. Runway 24: Wet or puddles, 26-50% contamination with 2mm, friction coefficient 0.55. URWW 092030Z 32009MPS 9999 -SHRA BKN006 OVC024CB 09/08 Q1012 R24/250255 NOSIG RMK OBST OBSC
IFR 8°C / 8°C 320º 17kt 9000m Light Showers Rain Broken Clouds 600ft 1012 No Significant change. Runway 24: Wet or puddles, 26-50% contamination with 2mm, friction coefficient 0.55. URWW 092000Z 32009MPS 9000 -SHRA BKN006 OVC026CB 08/08 Q1012 R24/250255 NOSIG RMK OBST OBSC
IFR 9°C / 8°C 310º 16kt 8000m Light Showers Rain Broken Clouds 600ft 1012 No Significant change. Runway 24: Wet or puddles, 51-100% contamination with <1mm, friction coefficient 0.60. URWW 091930Z 31008MPS 8000 -SHRA BKN006 OVC023CB 09/08 Q1012 R24/290060 NOSIG RMK OBST OBSC
IFR 8°C / 7°C 320º 17kt 9000m Light Showers Rain Broken Clouds 600ft 1012 No Significant change. Runway 24: Wet or puddles, 51-100% contamination with <1mm, friction coefficient 0.60. URWW 091900Z 32009MPS 9000 -SHRA BKN006 OVC030CB 08/07 Q1012 R24/290060 NOSIG RMK OBST OBSC

LIFR

7°C / 6°C

[أكثر]
رياح 270º 17kt
مجال رؤية 3900m
حالة الطقس Light Showers Rain
غيوم Broken Clouds 400ft
الضغط 1010
Change Temporary: Visibility 1000. Thunderstorm Rain Hail . Broken Clouds 100ft. Broken Clouds 2000ft. Cumulonimbus RMK OBST OBSC . Runway 24: Wet or puddles, 51-100% contamination with <1mm, friction coefficient 0.55.
Raw URWW 100630Z 27009MPS 3900 -SHRA BKN004 OVC026CB 07/06 Q1010 R24/290055 TEMPO 1000 TSRAGR BKN001 BKN020CB RMK OBST OBSC

IFR

7°C / 6°C

[أكثر]
رياح 270º 17kt
مجال رؤية 9000m
حالة الطقس Light Rain
غيوم Broken Clouds 700ft
الضغط 1010
Change No Significant change. Runway 24: Wet or puddles, 51-100% contamination with <1mm, friction coefficient 0.55.
Raw URWW 100600Z 27009MPS 9000 -RA BKN007 OVC033 07/06 Q1010 R24/290055 NOSIG RMK OBST OBSC

IFR

7°C / 6°C

[أكثر]
رياح 290º 17kt
مجال رؤية >10km
حالة الطقس -
غيوم Broken Clouds 900ft
الضغط 1010
Change No Significant change. Runway 24: Wet or puddles, 51-100% contamination with <1mm, friction coefficient 0.55.
Raw URWW 100530Z 29009MPS 9999 BKN009 07/06 Q1010 R24/290055 NOSIG RMK OBST OBSC

IFR

7°C / 6°C

[أكثر]
رياح 300º 19kt
مجال رؤية >10km
حالة الطقس -
غيوم Broken Clouds 800ft
الضغط 1010
Change No Significant change. Runway 24: Wet or puddles, 26-50% contamination with 2mm, friction coefficient 0.55.
Raw URWW 100500Z 30010MPS 9999 BKN008 BKN040 07/06 Q1010 R24/250255 NOSIG RMK OBST OBSC

IFR

7°C / 6°C

[أكثر]
رياح 300º 19kt
مجال رؤية >10km
حالة الطقس -
غيوم Broken Clouds 800ft
الضغط 1010
Change No Significant change. Runway 24: Wet or puddles, 26-50% contamination with 2mm, friction coefficient 0.55.
Raw URWW 100430Z 30010MPS 9999 BKN008 BKN040 07/06 Q1010 R24/250255 NOSIG RMK OBST OBSC

IFR

7°C / 6°C

[أكثر]
رياح 310º 23kt
مجال رؤية >10km
حالة الطقس -
غيوم Broken Clouds 700ft
الضغط 1009
Change Temporary: Visibility 1000. Thunderstorm Rain Hail . RMK OBST OBSC . Runway 24: Wet or puddles, 26-50% contamination with 2mm, friction coefficient 0.55.
Raw URWW 100400Z 31012MPS 9999 BKN007 BKN036CB 07/06 Q1009 R24/250255 TEMPO 1000 TSRAGR RMK OBST OBSC

IFR

7°C / 6°C

[أكثر]
رياح 300º 21kt
مجال رؤية >10km
حالة الطقس Light Showers Rain
غيوم Broken Clouds 600ft
الضغط 1010
Change Temporary: Visibility 1000. Thunderstorm Rain Hail . RMK OBST OBSC . Runway 24: Wet or puddles, 26-50% contamination with 2mm, friction coefficient 0.55.
Raw URWW 100330Z 30011MPS 9999 -SHRA BKN006 OVC026CB 07/06 Q1010 R24/250255 TEMPO 1000 TSRAGR RMK OBST OBSC

IFR

7°C / 6°C

[أكثر]
رياح 290º 19kt
مجال رؤية 7000m
حالة الطقس Light Showers Rain
غيوم Broken Clouds 500ft
الضغط 1011
Change Temporary: Visibility 1000. Thunderstorm Rain Hail . RMK OBST OBSC . Runway 24: Wet or puddles, 26-50% contamination with 2mm, friction coefficient 0.55.
Raw URWW 100300Z 29010MPS 7000 -SHRA BKN005 OVC023CB 07/06 Q1011 R24/250255 TEMPO 1000 TSRAGR RMK OBST OBSC

LIFR

7°C / 6°C

[أكثر]
رياح 290º 17kt
مجال رؤية 5000m
حالة الطقس Light Showers Rain
غيوم Broken Clouds 400ft
الضغط 1011
Change Temporary: Visibility 1000. Thunderstorm Rain Hail . RMK OBST OBSC . Runway 24: Wet or puddles, 26-50% contamination with 2mm, friction coefficient 0.55.
Raw URWW 100230Z 29009MPS 5000 -SHRA BKN004 OVC023CB 07/06 Q1011 R24/250255 TEMPO 1000 TSRAGR RMK OBST OBSC

IFR

7°C / 6°C

[أكثر]
رياح 290º 17kt
مجال رؤية 4100m
حالة الطقس Light Showers Rain
غيوم Broken Clouds 500ft
الضغط 1011
Change Temporary: Visibility 1000. Thunderstorm Rain Hail . RMK OBST OBSC . Runway 24: Wet or puddles, 26-50% contamination with 2mm, friction coefficient 0.55.
Raw URWW 100200Z 29009MPS 4100 -SHRA BKN005 OVC023CB 07/06 Q1011 R24/250255 TEMPO 1000 TSRAGR RMK OBST OBSC

IFR

7°C / 6°C

[أكثر]
رياح 300º 17kt
مجال رؤية >10km
حالة الطقس Light Showers Rain
غيوم Broken Clouds 700ft
الضغط 1011
Change Temporary: Visibility 1000. Thunderstorm Rain Hail . RMK OBST OBSC . Runway 24: Wet or puddles, 26-50% contamination with 2mm, friction coefficient 0.55.
Raw URWW 100130Z 30009MPS 9999 -SHRA BKN007 BKN025CB 07/06 Q1011 R24/250255 TEMPO 1000 TSRAGR RMK OBST OBSC

IFR

7°C / 6°C

[أكثر]
رياح 310º 19kt
مجال رؤية >10km
حالة الطقس Light Showers Rain
غيوم Broken Clouds 700ft
الضغط 1011
Change Temporary: Visibility 1000. Thunderstorm Rain Hail . RMK OBST OBSC . Runway 24: Wet or puddles, 26-50% contamination with 2mm, friction coefficient 0.55.
Raw URWW 100100Z 31010MPS 9999 -SHRA BKN007 BKN030CB 07/06 Q1011 R24/250255 TEMPO 1000 TSRAGR RMK OBST OBSC

IFR

7°C / 7°C

[أكثر]
رياح 310º 19kt
مجال رؤية >10km
حالة الطقس Light Showers Rain
غيوم Broken Clouds 700ft
الضغط 1011
Change Temporary: Visibility 1000. Thunderstorm Rain Hail . RMK OBST OBSC . Runway 24: Wet or puddles, 26-50% contamination with 2mm, friction coefficient 0.55.
Raw URWW 100030Z 31010MPS 9999 -SHRA BKN007 BKN030CB 07/07 Q1011 R24/250255 TEMPO 1000 TSRAGR RMK OBST OBSC

IFR

7°C / 7°C

[أكثر]
رياح 310º 19kt
مجال رؤية >10km
حالة الطقس Light Showers Rain
غيوم Broken Clouds 600ft
الضغط 1011
Change Temporary: Visibility 1000. Thunderstorm Rain Hail . RMK OBST OBSC . Runway 24: Wet or puddles, 26-50% contamination with 2mm, friction coefficient 0.55.
Raw URWW 100000Z 31010MPS 9999 -SHRA BKN006 OVC023CB 07/07 Q1011 R24/250255 TEMPO 1000 TSRAGR RMK OBST OBSC

IFR

8°C / 7°C

[أكثر]
رياح 310º 17kt
مجال رؤية >10km
حالة الطقس Light Showers Rain
غيوم Broken Clouds 600ft
الضغط 1011
Change Temporary: Visibility 1000. Thunderstorm Rain Hail . RMK OBST OBSC . Runway 24: Wet or puddles, 26-50% contamination with 2mm, friction coefficient 0.55.
Raw URWW 092330Z 31009MPS 9999 -SHRA BKN006 OVC026CB 08/07 Q1011 R24/250255 TEMPO 1000 TSRAGR RMK OBST OBSC

IFR

8°C / 7°C

[أكثر]
رياح 300º 17kt
مجال رؤية 9000m
حالة الطقس Light Showers Rain
غيوم Broken Clouds 600ft
الضغط 1012
Change Temporary: Visibility 1000. Thunderstorm Rain Hail . RMK OBST OBSC . Runway 24: Wet or puddles, 26-50% contamination with 2mm, friction coefficient 0.55.
Raw URWW 092300Z 30009MPS 9000 -SHRA BKN006 OVC021CB 08/07 Q1012 R24/250255 TEMPO 1000 TSRAGR RMK OBST OBSC

IFR

8°C / 7°C

[أكثر]
رياح 310º 17kt
مجال رؤية 8000m
حالة الطقس Light Showers Rain
غيوم Broken Clouds 700ft
الضغط 1012
Change No Significant change. Runway 24: Wet or puddles, 26-50% contamination with 2mm, friction coefficient 0.55.
Raw URWW 092230Z 31009MPS 8000 -SHRA BKN007 OVC027CB 08/07 Q1012 R24/250255 NOSIG RMK OBST OBSC

IFR

8°C / 7°C

[أكثر]
رياح 300º 17kt
مجال رؤية 7000m
حالة الطقس Light Showers Rain
غيوم Broken Clouds 600ft
الضغط 1012
Change No Significant change. Runway 24: Wet or puddles, 26-50% contamination with 2mm, friction coefficient 0.55.
Raw URWW 092200Z 30009MPS 7000 -SHRA BKN006 OVC026CB 08/07 Q1012 R24/250255 NOSIG RMK OBST OBSC

IFR

8°C / 7°C

[أكثر]
رياح 310º 16kt
مجال رؤية 6000m
حالة الطقس Light Showers Rain
غيوم Broken Clouds 600ft
الضغط 1012
Change No Significant change. Runway 24: Wet or puddles, 26-50% contamination with 2mm, friction coefficient 0.55.
Raw URWW 092130Z 31008MPS 6000 -SHRA BKN006 OVC020CB 08/07 Q1012 R24/250255 NOSIG RMK OBST OBSC

IFR

8°C / 8°C

[أكثر]
رياح 310º 16kt
مجال رؤية 8000m
حالة الطقس Light Showers Rain
غيوم Broken Clouds 700ft
الضغط 1012
Change No Significant change. Runway 24: Wet or puddles, 26-50% contamination with 2mm, friction coefficient 0.55.
Raw URWW 092100Z 31008MPS 8000 -SHRA BKN007 OVC022CB 08/08 Q1012 R24/250255 NOSIG RMK OBST OBSC

IFR

9°C / 8°C

[أكثر]
رياح 320º 17kt
مجال رؤية >10km
حالة الطقس Light Showers Rain
غيوم Broken Clouds 600ft
الضغط 1012
Change No Significant change. Runway 24: Wet or puddles, 26-50% contamination with 2mm, friction coefficient 0.55.
Raw URWW 092030Z 32009MPS 9999 -SHRA BKN006 OVC024CB 09/08 Q1012 R24/250255 NOSIG RMK OBST OBSC

IFR

8°C / 8°C

[أكثر]
رياح 320º 17kt
مجال رؤية 9000m
حالة الطقس Light Showers Rain
غيوم Broken Clouds 600ft
الضغط 1012
Change No Significant change. Runway 24: Wet or puddles, 26-50% contamination with 2mm, friction coefficient 0.55.
Raw URWW 092000Z 32009MPS 9000 -SHRA BKN006 OVC026CB 08/08 Q1012 R24/250255 NOSIG RMK OBST OBSC

IFR

9°C / 8°C

[أكثر]
رياح 310º 16kt
مجال رؤية 8000m
حالة الطقس Light Showers Rain
غيوم Broken Clouds 600ft
الضغط 1012
Change No Significant change. Runway 24: Wet or puddles, 51-100% contamination with <1mm, friction coefficient 0.60.
Raw URWW 091930Z 31008MPS 8000 -SHRA BKN006 OVC023CB 09/08 Q1012 R24/290060 NOSIG RMK OBST OBSC

IFR

8°C / 7°C

[أكثر]
رياح 320º 17kt
مجال رؤية 9000m
حالة الطقس Light Showers Rain
غيوم Broken Clouds 600ft
الضغط 1012
Change No Significant change. Runway 24: Wet or puddles, 51-100% contamination with <1mm, friction coefficient 0.60.
Raw URWW 091900Z 32009MPS 9000 -SHRA BKN006 OVC030CB 08/07 Q1012 R24/290060 NOSIG RMK OBST OBSC

TAF for 48.78°شمال 44.34°شرق (URWW)

From till


From till Wind 300º 17kt. Gust 27kt. Visibility 6000m. Light Showers Rain . Broken Clouds 700ft. Broken Clouds 2000ft.
Temporarly from till Wind 270º 21kt. Gust 33kt. Broken Clouds 400ft. Broken Clouds 2000ft.
With 40% probability, Temporarly from till Light Thunderstorm Rain Light Thunderstorm Hail .

Raw: TAF URWW 100457Z 1006/1015 30009G14MPS 6000 -SHRA BKN007 BKN020CB TEMPO 1006/1015 27011G17MPS BKN004 BKN020CB PROB40 TEMPO 1006/1015 -TSRAGR

Current satellite and rain images for 48.78°شمال 44.34°شرق

المؤشر يدل على موقع 48.78°شمال 44.34°شرق. [أكثر]

The real-time satellite image combines visible light during daytime with infrared radiation during nighttime. At night, the image is not dark as infrared radiation can detect temperature differences. Unfortunately, low clouds and fog are difficult to distinguish from ground temperatures and thus can be almost invisible during the night. Meteosat satellite images for Europe are updated in real-time every 5 minutes. GOES-16/GOES-17 (North & South America) and Himawari (Asia) images update every 10 minutes.

حقوق النسخ 2021 EUMETSAT / meteoblue. / حقوق النسخ 2021 meteoblue

رادار وهطول الأمطار التنبؤ الآني ل48.78°شمال 44.34°شرق

مؤشر المكان يشير الى 48.78°شمال 44.34°شرق. تظهر في هذه الرسوم المتحركة هطول الامطار بالرادار للساعة الماضية, و توقعات 1h. الأمطار والثلوج الخفيفة يمكن أن تكون غير مرئية للرادار. كثافة هطول الأمطار ممثلة بلون يتدرج من الأزرق الفاتح إلى اللون الأرجواني الغامق.